Location: Palomar Observatory
(33.3560°N, 116.8630°W)
Time: 20:04:19
(UTC-07:00)

Iridium 57 - Visible Passes

Search period start: 30 July 2015 00:00
Search period end: 09 August 2015 00:00
Orbit: 776 x 779 km, 86.4° (Epoch: 30 July)

Date Brightness Start Highest point End Pass type
(mag) Time Alt. Az. Time Alt. Az. Time Alt. Az.
01 Aug 8.3 05:05:49 10° NE 05:09:26 19° ENE 05:13:14 10° SE visible
04 Aug 7.7 05:05:16 10° NNE 05:09:42 29° E 05:14:14 10° SE visible
05 Aug 8.4 04:33:05 10° NE 04:35:51 15° ENE 04:38:55 10° ESE visible
07 Aug 6.9 05:04:59 10° NNE 05:09:55 43° E 05:14:53 10° SSE visible
08 Aug 8.0 04:32:14 10° NNE 04:36:11 22° E 04:40:17 10° SE visible
